This demonstration page uses our WeatherBlox Daily Observations layout. Learn more.

Left ArrowRight Arrow

41.12389, -100.76542

Hourly Observations for March 25, 2018

Temp ( °F °C ) Dew Point ( °F °C ) Humidity (%) Winds ( mph kmh ) Pressure ( in mb ) Visibility ( mi km ) Precip ( " mm )
12:53 am 00:53 Cloudy 33 0.6 30 -1.1 89 89 ESE 15 24 29.97 1015 10 16 0.00 0.00
1:53 am 01:53 Cloudy 32 0 29 -1.7 88 88 SE 12 19 29.96 1015 10 16 0.00 0.00
2:35 am 02:35 Cloudy 31 -0.6 28 -2.2 89 89 ESE 10 17 30.00 1016 9 14 0.00 0.00
2:53 am 02:53 Cloudy 31 -0.6 28 -2.2 89 89 SE 13 20 29.94 1014 9 14 0.00 0.00
3:23 am 03:23 Cloudy 31 -0.6 28 -2.2 89 89 SE 13 20 30.06 1018 10 16 0.00 0.00
3:53 am 03:53 Cloudy 30 -1.1 27 -2.8 88 88 SE 14 22 29.93 1014 8 13 0.00 0.00
4:53 am 04:53 Cloudy 30 -1.1 27 -2.8 88 88 SE 10 17 29.94 1014 9 14 0.00 0.00
5:53 am 05:53 Cloudy 30 -1.1 28 -2.2 92 92 SSE 8 13 29.95 1014 7 11 0.00 0.00
6:53 am 06:53 Cloudy with Mist and Fog 31 -0.6 29 -1.7 92 92 SSE 6 9 29.97 1015 6 10 0.00 0.00
7:37 am 07:37 Cloudy with Mist and Fog 30 -1.1 28 -2.2 92 92 SE 7 11 30.06 1018 3 4 0.00 0.00
7:53 am 07:53 Cloudy with Mist and Fog 30 -1.1 29 -1.7 96 96 SE 8 13 29.98 1015 2 3 0.00 0.00
8:00 am 08:00 Cloudy with Mist and Fog 31 -0.6 29 -1.7 92 92 SE 9 15 30.06 1018 2 2 0.00 0.00
8:14 am 08:14 Cloudy with Mist and Fog 30 -1.1 29 -1.7 96 96 SE 8 13 30.06 1018 1 2 0.00 0.00
8:21 am 08:21 Cloudy with Mist and Fog 30 -1.1 29 -1.7 96 96 SE 7 11 30.06 1018 1 1 0.00 0.00
8:39 am 08:39 Cloudy with Mist and Fog 31 -0.6 29 -1.7 92 92 SSE 8 13 30.06 1018 1 2 0.00 0.00
8:53 am 08:53 Cloudy with Mist and Fog 31 -0.6 29 -1.7 92 92 SSE 9 15 30.00 1016 2 2 0.00 0.00
9:29 am 09:29 Cloudy with Mist and Fog 32 0 30 -1.1 92 92 SE 8 13 30.06 1018 2 2 0.00 0.00
9:39 am 09:39 Cloudy with Mist and Fog 32 0 30 -1.1 92 92 SE 8 13 30.06 1018 2 2 0.00 0.00
9:53 am 09:53 Cloudy with Mist and Fog 32 0 30 -1.1 92 92 SE 8 13 30.01 1016 2 3 0.00 0.00
10:17 am 10:17 Cloudy with Mist and Fog 32 0 30 -1.1 92 92 SE 9 15 30.03 1017 2 3 0.00 0.00
10:37 am 10:37 Cloudy with Mist and Fog 33 0.6 30 -1.1 89 89 SSE 12 19 30.03 1017 3 5 0.00 0.00
10:53 am 10:53 Cloudy with Mist and Fog 33 0.6 30 -1.1 89 89 SSE 10 17 30.00 1016 4 6 0.00 0.00
11:53 am 11:53 Cloudy 34 1.1 31 -0.6 89 89 SSE 7 11 30.02 1017 7 11 0.00 0.00
12:53 pm 12:53 Cloudy 35 1.7 32 0 89 89 SSE 7 11 30.00 1016 9 14 0.00 0.00
1:53 pm 13:53 Cloudy 38 3.3 33 0.6 83 83 S 8 13 29.97 1015 10 16 0.00 0.00
2:53 pm 14:53 Cloudy 39 3.9 33 0.6 79 79 SSE 7 11 29.95 1014 10 16 0.00 0.00
3:05 pm 15:05 Cloudy 39 3.9 33 0.6 79 79 SSW 5 7 29.94 1014 10 16 0.00 0.00
3:53 pm 15:53 Cloudy 40 4.4 33 0.6 77 77 ESE 8 13 29.93 1013 10 16 0.00 0.00
4:53 pm 16:53 Cloudy 39 3.9 33 0.6 79 79 SSE 7 11 29.92 1013 9 14 0.00 0.00
5:53 pm 17:53 Cloudy 39 3.9 33 0.6 79 79 SE 9 15 29.92 1013 9 14 0.00 0.00
6:49 pm 18:49 Cloudy 37 3 32 0 81 81 SE 12 19 29.91 1013 8 13 0.00 0.00
6:53 pm 18:53 Cloudy 37 2.8 32 0 82 82 SE 10 17 29.92 1013 8 13 0.00 0.00
7:53 pm 19:53 Cloudy with Mist and Fog 37 2.8 33 0.6 86 86 ESE 10 17 29.94 1014 3 5 0.00 0.00
8:53 pm 20:53 Cloudy with Mist and Fog 36 2.2 34 1.1 93 93 SE 5 7 29.96 1015 3 5 0.00 0.00
9:53 pm 21:53 Cloudy with Mist and Fog 36 2.2 34 1.1 93 93 E 9 15 29.95 1014 4 6 0.00 0.00
10:23 pm 22:23 Cloudy with Mist and Fog 36 2.2 34 1.1 93 93 ESE 8 13 29.97 1015 4 6 0.00 0.00
10:53 pm 22:53 Cloudy 36 2.2 34 1.1 93 93 ENE 8 13 29.95 1014 7 11 0.00 0.00
11:38 pm 23:38 Cloudy with Mist and Fog 35 1.7 34 1.1 96 96 E 7 11 30.00 1016 3 4 0.00 0.00
11:53 pm 23:53 Cloudy with Mist and Fog 35 1.7 33 0.6 93 93 ENE 6 9 29.97 1015 3 4 0.00 0.00

Powered by AerisWeather